GW2652 Weather Reports


Display with metric or nautical units.
time (UTC)temp
F
wind
direction
speed
MPH
gust
MPH
rain 1hr
in
rain 24hr
in
rain mn
in
humidity
%
barometer
mb
20260507101310 33 203 0.0 0.0 0.00 0.01 0.01 99 1009.0
20260507100808 33 203 0.0 0.0 0.00 0.01 0.01 99 1009.0
20260507100306 34 203 0.0 0.0 0.00 0.01 0.01 99 1009.0
20260507095804 34 203 0.0 0.0 0.00 0.01 0.01 99 1008.8
20260507095300 34 203 0.0 0.0 0.00 0.01 0.01 99 1008.9
20260507094757 34 175 0.0 0.0 0.00 0.01 0.01 99 1009.1
20260507094254 34 176 0.0 0.0 0.00 0.01 0.01 99 1009.1
20260507093751 35 173 0.0 0.0 0.00 0.01 0.01 99 1008.9
20260507093249 35 173 0.0 0.0 0.00 0.01 0.01 99 1008.9
20260507092747 35 173 0.0 0.0 0.00 0.01 0.01 99 1009.0
20260507092242 35 173 0.0 0.0 0.00 0.01 0.01 99 1009.2
20260507091739 36 173 0.0 0.0 0.00 0.01 0.01 99 1008.9
20260507091236 36 173 0.0 0.0 0.00 0.01 0.01 99 1009.0
20260507090731 37 173 0.0 0.0 0.00 0.01 0.01 99 1009.1
20260507090228 37 173 0.0 0.0 0.00 0.01 0.01 98 1009.1
20260507085725 38 173 0.0 0.0 0.00 0.01 0.01 98 1009.0
20260507085222 38 172 0.0 0.0 0.00 0.01 0.01 97 1009.0
20260507084719 38 172 0.0 0.0 0.00 0.01 0.01 97 1009.0
20260507084215 39 175 0.0 0.0 0.00 0.01 0.01 97 1008.9
20260507083713 39 175 0.0 0.0 0.00 0.01 0.01 97 1008.9
20260507083209 39 181 0.0 0.0 0.00 0.01 0.01 97 1008.8
20260507082705 39 177 0.0 0.0 0.00 0.01 0.01 97 1008.7
20260507082201 39 177 0.0 1.0 0.00 0.01 0.01 97 1008.8
20260507081658 39 166 0.0 0.0 0.00 0.01 0.01 97 1008.7
20260507081154 39 159 0.0 0.0 0.00 0.01 0.01 97 1008.7
20260507080651 39 159 0.0 0.0 0.00 0.01 0.01 97 1009.0
20260507080142 40 196 0.0 0.0 0.00 0.01 0.01 98 1009.0
20260507075637 40 196 0.0 0.0 0.00 0.01 0.01 97 1008.9
20260507075133 40 180 0.0 0.0 0.00 0.01 0.01 98 1008.8
20260507074630 40 197 0.0 0.0 0.00 0.01 0.01 97 1009.1
20260507074129 40 197 0.0 0.0 0.00 0.01 0.01 96 1008.9
20260507073625 40 197 0.0 0.0 0.00 0.01 0.01 96 1008.7
20260507073121 41 179 0.0 0.0 0.00 0.01 0.01 95 1008.8
20260507072619 41 179 1.0 1.0 0.00 0.01 0.01 94 1008.7
20260507072116 41 161 0.0 0.0 0.00 0.01 0.01 94 1008.7
20260507071613 41 190 0.0 1.0 0.00 0.01 0.01 94 1008.8
20260507071110 41 191 0.0 0.0 0.00 0.01 0.01 93 1008.9
20260507070607 41 179 0.0 1.0 0.00 0.01 0.01 94 1008.7
20260507070104 41 238 2.0 3.0 0.00 0.01 0.01 93 1008.9
20260507065600 41 139 0.0 1.0 0.00 0.01 0.01 94 1008.7
20260507065057 42 85 2.0 4.0 0.00 0.01 0.01 93 1008.8
20260507064555 42 161 1.0 1.0 0.00 0.01 0.01 92 1008.5
20260507064054 42 301 4.0 6.0 0.00 0.01 0.01 93 1008.3
20260507063550 42 182 3.0 4.0 0.00 0.01 0.01 95 1008.7
20260507063048 42 64 4.0 7.0 0.00 0.01 0.01 97 1008.3
20260507062544 43 216 3.0 4.0 0.00 0.01 0.01 99 1008.4
20260507062042 43 155 0.0 1.0 0.00 0.01 0.01 99 1008.3
20260507061539 43 190 0.0 0.0 0.00 0.01 0.01 99 1008.4
20260507061037 43 89 0.0 1.0 0.00 0.01 0.01 99 1008.5
20260507060535 43 151 1.0 1.0 0.00 0.01 0.01 99 1008.4
20260507060031 43 312 0.0 1.0 0.00 0.01 0.01 99 1007.9
20260507055526 43 312 4.0 4.0 0.00 0.01 0.01 99 1008.3
20260507055022 43 109 0.0 1.0 0.00 0.01 0.01 99 1008.0
20260507054518 43 64 1.0 1.0 0.00 0.01 0.01 99 1008.0
20260507054016 43 64 0.0 0.0 0.00 0.01 0.01 99 1008.2
20260507053514 43 74 0.0 1.0 0.00 0.01 0.01 99 1008.3
20260507053012 43 74 0.0 0.0 0.07 0.01 0.01 99 1008.3
20260507052509 43 74 0.0 0.0 0.07 0.01 0.01 99 1008.4
20260507052006 43 74 0.0 1.0 0.00 0.00 0.00 99 1008.5
20260507051504 43 74 0.0 0.0 0.00 0.00 0.00 99 1008.4
20260507051000 43 74 0.0 0.0 0.00 0.00 0.00 99 1008.3
20260507050456 43 181 0.0 0.0 0.00 0.00 0.00 99 1008.7
20260507045953 42 181 0.0 0.0 0.00 0.00 0.00 99 1008.4
20260507045450 42 181 0.0 0.0 0.00 0.00 0.00 99 1008.5
20260507044948 43 181 0.0 0.0 0.00 0.00 0.00 99 1008.7
20260507044444 42 181 0.0 0.0 0.00 0.00 0.00 99 1008.6
20260507043940 43 181 0.0 0.0 0.00 0.00 0.00 99 1008.8
20260507043436 43 181 0.0 0.0 0.00 0.00 0.00 99 1008.5
20260507042933 42 181 0.0 0.0 0.00 0.00 0.00 99 1008.6
20260507042430 43 181 0.0 0.0 0.00 0.00 0.00 99 1008.2
20260507041925 42 181 0.0 0.0 0.00 0.00 0.00 99 1008.2
20260507041422 43 181 0.0 0.0 0.00 0.00 0.00 99 1008.4
20260507040920 42 181 0.0 0.0 0.00 0.00 0.00 99 1007.8
20260507040415 43 181 0.0 0.0 0.00 0.00 0.00 99 1007.9
20260507035911 43 181 0.0 0.0 0.00 0.52 0.52 99 1008.0
20260507035408 43 181 0.0 0.0 0.00 0.52 0.52 99 1008.2
20260507034905 43 181 0.0 0.0 0.00 0.52 0.52 99 1007.6
20260507034401 43 181 0.0 0.0 0.00 0.52 0.52 99 1007.9
20260507033859 43 181 0.0 0.0 0.00 0.52 0.52 99 1008.2
20260507033358 43 181 0.0 0.0 0.00 0.52 0.52 99 1008.2
20260507032854 43 181 0.0 0.0 0.00 0.52 0.52 99 1008.3
20260507032351 43 182 0.0 0.0 0.00 0.52 0.52 99 1008.4
20260507031847 43 181 0.0 0.0 0.00 0.52 0.52 99 1008.2
20260507031344 43 182 0.0 0.0 0.00 0.52 0.52 99 1008.3
20260507030840 43 182 0.0 1.0 0.00 0.52 0.52 99 1008.5
20260507030338 43 182 0.0 0.0 0.00 0.52 0.52 99 1008.7
20260507025834 44 182 0.0 0.0 0.00 0.52 0.52 99 1008.4
20260507025332 43 182 0.0 0.0 0.00 0.52 0.52 99 1008.5
20260507024830 43 182 0.0 0.0 0.00 0.52 0.52 99 1008.3
20260507024327 43 182 0.0 0.0 0.00 0.52 0.52 99 1008.3
20260507023822 43 182 0.0 1.0 0.00 0.52 0.52 99 1008.5
20260507023319 43 181 0.0 0.0 0.00 0.52 0.52 99 1008.8
20260507022817 44 181 0.0 0.0 0.00 0.52 0.52 99 1008.6
20260507022313 44 84 0.0 0.0 0.00 0.52 0.52 99 1008.8
20260507021809 44 84 0.0 0.0 0.00 0.52 0.52 99 1008.5
20260507021305 44 84 0.0 0.0 0.00 0.52 0.52 99 1008.7
20260507020803 44 84 0.0 0.0 0.00 0.52 0.52 99 1008.7
20260507020259 44 84 0.0 0.0 0.00 0.52 0.52 99 1009.0
20260507015757 44 84 0.0 0.0 0.00 0.52 0.52 99 1008.6
20260507015254 44 84 0.0 0.0 0.00 0.52 0.52 99 1008.5
20260507014751 44 84 0.0 0.0 0.00 0.52 0.52 99 1008.9
20260507014247 44 84 0.0 0.0 0.00 0.52 0.52 99 1008.7
20260507013744 44 84 0.0 0.0 0.00 0.52 0.52 99 1008.9
20260507013241 44 84 0.0 0.0 0.00 0.52 0.52 99 1009.0
20260507012739 44 84 0.0 0.0 0.00 0.52 0.52 99 1008.8
20260507012234 44 86 0.0 0.0 0.00 0.52 0.52 99 1008.7
20260507011732 44 83 0.0 0.0 0.00 0.52 0.52 99 1008.8
20260507011228 44 83 0.0 0.0 0.00 0.52 0.52 99 1008.7
20260507010728 44 83 0.0 0.0 0.00 0.52 0.52 99 1008.6
20260507010224 44 83 0.0 0.0 0.00 0.52 0.52 99 1008.6
20260507005722 44 83 0.0 0.0 0.00 0.52 0.52 99 1008.4
20260507005218 44 83 0.0 1.0 0.00 0.52 0.52 99 1008.3
20260507004714 44 170 0.0 0.0 0.00 0.52 0.52 99 1008.3
20260507004212 44 181 0.0 0.0 0.00 0.52 0.52 99 1008.0
20260507003708 44 189 1.0 1.0 0.00 0.52 0.52 99 1008.0
20260507003203 44 225 1.0 1.0 0.00 0.52 0.52 99 1008.5
20260507002700 44 186 0.0 0.0 0.00 0.52 0.52 99 1008.0
20260507002156 44 212 1.0 1.0 0.00 0.52 0.52 99 1007.9
20260507001653 44 206 0.0 1.0 0.00 0.52 0.52 99 1008.2
20260507001150 44 202 0.0 0.0 0.00 0.52 0.52 99 1008.0
20260507000646 44 204 0.0 0.0 0.00 0.52 0.52 99 1008.2
20260507000142 44 204 0.0 0.0 0.00 0.52 0.52 99 1007.9
20260506235639 44 201 0.0 0.0 0.00 0.52 0.52 99 1007.6
20260506235139 45 211 1.0 2.0 0.00 0.52 0.52 99 1007.8
20260506234637 45 159 0.0 0.0 0.00 0.52 0.52 99 1007.6
20260506234134 45 76 0.0 1.0 0.00 0.52 0.52 99 1007.5
20260506233631 45 182 0.0 1.0 0.00 0.52 0.52 99 1007.8
20260506233128 45 204 1.0 2.0 0.00 0.52 0.52 99 1007.5
20260506232624 45 171 1.0 1.0 0.00 0.52 0.52 99 1007.5
20260506232120 45 181 0.0 1.0 0.00 0.52 0.52 99 1007.4
20260506231617 45 171 1.0 1.0 0.00 0.52 0.52 99 1007.4
20260506231115 45 130 0.0 1.0 0.00 0.52 0.52 99 1007.5
20260506230612 45 229 2.0 3.0 0.00 0.52 0.52 99 1007.3
20260506230109 45 154 1.0 2.0 0.00 0.52 0.52 99 1007.1
20260506225605 45 94 1.0 1.0 0.00 0.52 0.52 99 1007.1
20260506225102 46 283 2.0 2.0 0.00 0.52 0.52 99 1007.0
20260506224559 46 214 1.0 2.0 0.00 0.52 0.52 98 1007.1
20260506224055 46 72 1.0 3.0 0.00 0.52 0.52 98 1006.8
20260506223551 46 139 0.0 1.0 0.00 0.52 0.52 98 1007.0
20260506223048 46 181 0.0 0.0 0.00 0.52 0.52 98 1006.7
20260506222545 46 60 0.0 1.0 0.00 0.52 0.52 99 1006.7
20260506222041 46 172 2.0 3.0 0.00 0.52 0.52 99 1006.7
20260506221539 46 167 0.0 1.0 0.00 0.52 0.52 99 1006.9
20260506221037 46 177 4.0 6.0 0.00 0.52 0.52 99 1006.7
20260506220532 46 200 1.0 1.0 0.00 0.52 0.52 99 1006.7
20260506220028 46 195 1.0 2.0 0.00 0.52 0.52 99 1006.8
20260506215525 46 214 2.0 2.0 0.00 0.52 0.52 99 1006.8
20260506215020 46 170 2.0 2.0 0.00 0.52 0.52 99 1006.8
20260506214518 46 179 0.0 0.0 0.00 0.52 0.52 99 1006.3
20260506214015 46 100 3.0 3.0 0.00 0.52 0.52 99 1006.6
20260506213513 46 275 3.0 4.0 0.00 0.52 0.52 99 1006.3
20260506213010 46 250 1.0 1.0 0.00 0.52 0.52 99 1006.4
20260506212506 46 261 1.0 2.0 0.00 0.52 0.52 99 1006.3
20260506212001 46 114 1.0 1.0 0.00 0.52 0.52 99 1006.0
20260506211457 46 180 1.0 2.0 0.00 0.52 0.52 99 1006.0
20260506210955 47 210 0.0 0.0 0.00 0.52 0.52 99 1005.8
20260506210451 47 160 0.0 0.0 0.05 0.52 0.52 99 1005.7
20260506205948 47 142 0.0 0.0 0.05 0.52 0.52 99 1005.9
20260506205444 47 180 1.0 1.0 0.00 0.51 0.51 99 1005.8
20260506204940 47 117 0.0 1.0 0.00 0.51 0.51 99 1005.3
20260506204438 47 117 1.0 1.0 0.00 0.51 0.51 99 1005.2
20260506203935 47 165 2.0 2.0 0.00 0.51 0.51 99 1005.1
20260506203432 48 205 1.0 1.0 0.00 0.51 0.51 99 1005.1
20260506202929 48 162 1.0 1.0 0.00 0.51 0.51 99 1005.0
20260506202427 47 116 1.0 2.0 0.00 0.51 0.51 99 1004.9
20260506201923 47 59 5.0 7.0 0.00 0.51 0.51 99 1004.7
20260506201421 48 110 2.0 3.0 0.00 0.51 0.51 99 1004.7
20260506200917 48 320 7.0 9.0 0.00 0.51 0.51 99 1004.6
20260506200413 48 101 1.0 1.0 0.07 0.51 0.51 99 1004.9
20260506195910 48 322 2.0 4.0 0.07 0.51 0.51 99 1004.8
20260506195407 48 70 4.0 6.0 0.00 0.50 0.50 99 1004.6
20260506194904 48 45 1.0 2.0 0.00 0.50 0.50 99 1004.6
20260506194401 49 293 3.0 3.0 0.00 0.50 0.50 99 1004.8
20260506193858 49 190 2.0 2.0 0.00 0.50 0.50 99 1004.6
20260506193354 49 288 4.0 6.0 0.05 0.50 0.50 99 1004.4
20260506192851 49 274 0.0 1.0 0.05 0.50 0.50 99 1004.4
20260506192348 49 143 0.0 0.0 0.00 0.49 0.49 99 1004.4
20260506191845 49 147 1.0 2.0 0.00 0.49 0.49 99 1004.3
20260506191341 49 144 1.0 2.0 0.00 0.49 0.49 99 1004.4
20260506190838 49 227 4.0 4.0 0.00 0.49 0.49 99 1004.4
20260506190334 50 64 1.0 2.0 0.00 0.49 0.49 99 1004.2
20260506185831 50 308 6.0 8.0 0.00 0.49 0.49 99 1004.2
20260506185328 50 283 3.0 3.0 0.00 0.49 0.49 99 1004.2
20260506184825 50 154 0.0 0.0 0.00 0.49 0.49 99 1004.2
20260506184322 50 179 4.0 4.0 0.00 0.49 0.49 99 1004.1
20260506183820 50 281 0.0 1.0 0.00 0.49 0.49 99 1003.9
20260506183315 51 74 3.0 7.0 0.00 0.49 0.49 99 1003.8
20260506182813 51 147 2.0 3.0 0.00 0.49 0.49 99 1003.9
20260506182309 52 107 2.0 3.0 0.07 0.49 0.49 99 1003.8
20260506181801 52 294 3.0 6.0 0.07 0.49 0.49 99 1003.8
20260506181259 54 62 4.0 7.0 0.00 0.48 0.48 99 1003.8
20260506180756 57 264 1.0 1.0 0.00 0.48 0.48 99 1003.6
20260506180252 57 326 4.0 6.0 0.00 0.48 0.48 99 1003.5
20260506175748 57 197 1.0 1.0 0.00 0.48 0.48 99 1003.3
20260506175245 57 250 2.0 2.0 0.00 0.48 0.48 99 1003.5
20260506174743 57 202 1.0 2.0 0.00 0.48 0.48 99 1003.3
20260506174239 57 168 3.0 4.0 0.00 0.48 0.48 99 1003.2
20260506173737 57 285 2.0 2.0 0.00 0.48 0.48 99 1003.4
20260506173234 57 324 1.0 2.0 0.00 0.48 0.48 99 1003.3
20260506172731 57 277 2.0 3.0 0.00 0.48 0.48 99 1003.5
20260506172227 57 180 0.0 1.0 0.00 0.48 0.48 99 1003.3
20260506171725 57 176 1.0 2.0 0.00 0.48 0.48 99 1003.2
20260506171222 57 205 2.0 3.0 0.00 0.48 0.48 99 1003.7
20260506170720 57 184 0.0 1.0 0.00 0.48 0.48 99 1003.7
20260506170216 57 185 1.0 1.0 0.05 0.48 0.48 99 1003.9
20260506165715 57 257 4.0 4.0 0.05 0.48 0.48 99 1003.7
20260506165211 57 165 1.0 1.0 0.00 0.47 0.47 99 1003.6
20260506164708 56 227 4.0 6.0 0.07 0.47 0.47 99 1003.7
20260506164205 56 173 1.0 2.0 0.07 0.47 0.47 99 1003.8
20260506163702 56 213 0.0 1.0 0.00 0.46 0.46 99 1003.6
20260506163157 56 335 3.0 3.0 0.00 0.46 0.46 99 1003.6
20260506162653 56 148 0.0 1.0 0.00 0.46 0.46 99 1003.5
20260506162151 56 143 1.0 1.0 0.00 0.46 0.46 99 1003.6
20260506161648 56 253 2.0 2.0 0.00 0.46 0.46 99 1003.9
20260506161144 56 143 0.0 0.0 0.05 0.46 0.46 99 1003.8
20260506160642 56 142 0.0 0.0 0.05 0.46 0.46 99 1004.0
20260506160139 56 194 1.0 2.0 0.00 0.45 0.45 99 1003.8
20260506155637 56 201 2.0 3.0 0.00 0.45 0.45 99 1003.9
20260506155134 56 151 2.0 2.0 0.07 0.45 0.45 99 1004.0
20260506153236 55 194 0.0 1.0 0.05 0.43 0.43 99 1004.3
20260506152733 55 121 1.0 1.0 0.07 0.42 0.42 99 1004.1
20260506152230 55 171 0.0 0.0 0.12 0.42 0.42 99 1004.2
20260506151730 55 171 1.0 2.0 0.05 0.41 0.41 99 1004.0
20260506151225 55 70 1.0 2.0 0.05 0.41 0.41 99 1004.0
20260506150722 56 215 2.0 2.0 0.07 0.40 0.40 99 1004.0
20260506150219 55 147 0.0 0.0 0.07 0.40 0.40 99 1004.1
20260506145717 55 164 0.0 1.0 0.05 0.39 0.39 99 1003.8
20260506145213 55 130 0.0 0.0 0.05 0.39 0.39 99 1004.0
20260506144710 55 130 0.0 0.0 0.00 0.38 0.38 99 1004.2
20260506144207 55 210 0.0 0.0 0.00 0.38 0.38 99 1003.7
20260506143705 55 134 0.0 0.0 0.07 0.38 0.38 99 1004.1
20260506143202 55 134 0.0 1.0 0.07 0.38 0.38 99 1003.9
20260506142701 55 130 0.0 0.0 0.00 0.37 0.37 99 1004.0
20260506142158 55 130 1.0 1.0 0.00 0.37 0.37 99 1004.0
20260506141656 54 130 1.0 1.0 0.05 0.37 0.37 99 1004.1
20260506141154 54 132 0.0 0.0 0.12 0.37 0.37 99 1004.1
20260506140651 54 132 0.0 0.0 0.12 0.36 0.36 99 1004.1
20260506140148 54 131 0.0 0.0 0.12 0.35 0.35 99 1004.2
20260506135645 54 131 1.0 2.0 0.12 0.34 0.34 99 1004.4
20260506135141 54 129 0.0 1.0 0.12 0.33 0.33 99 1004.3
20260506134638 54 134 0.0 0.0 0.14 0.32 0.32 99 1004.5
20260506134134 54 134 0.0 0.0 0.12 0.31 0.31 99 1004.6
20260506133631 54 135 0.0 0.0 0.17 0.30 0.30 99 1004.7
20260506133128 54 151 0.0 0.0 0.19 0.29 0.29 99 1004.9
20260506132626 54 152 0.0 1.0 0.24 0.28 0.28 99 1004.8
20260506132122 53 147 1.0 1.0 0.24 0.26 0.26 99 1005.0
20260506131620 53 150 0.0 0.0 0.28 0.24 0.24 99 1005.1
20260506131116 53 150 1.0 1.0 0.31 0.22 0.22 99 1005.2
20260506130613 53 150 0.0 0.0 0.19 0.19 0.19 99 1005.2
20260506130110 53 102 0.0 0.0 0.12 0.17 0.17 99 1005.1
20260506125609 53 211 0.0 1.0 0.12 0.16 0.16 99 1005.1
20260506125106 53 211 0.0 1.0 0.12 0.15 0.15 99 1004.6
20260506124603 53 211 1.0 2.0 0.07 0.14 0.14 99 1004.7
20260506124101 52 211 1.0 2.0 0.05 0.13 0.13 99 1004.8
20260506123559 52 211 0.0 0.0 0.05 0.13 0.13 99 1004.8
20260506123057 52 211 0.0 0.0 0.00 0.12 0.12 99 1004.6
20260506122553 52 211 0.0 0.0 0.07 0.12 0.12 99 1004.6
20260506122051 52 211 0.0 1.0 0.07 0.12 0.12 99 1004.7
20260506121549 51 211 0.0 0.0 0.07 0.12 0.12 99 1004.7
20260506121044 51 211 0.0 0.0 0.00 0.11 0.11 99 1004.7
20260506120543 51 211 0.0 0.0 0.00 0.11 0.11 99 1004.8
20260506120040 51 211 0.0 0.0 0.00 0.11 0.11 99 1004.8
20260506115538 51 211 0.0 0.0 0.00 0.11 0.11 99 1004.7
20260506115036 51 211 0.0 0.0 0.05 0.11 0.11 99 1005.0
20260506114533 50 211 0.0 0.0 0.05 0.11 0.11 99 1004.8
20260506114032 50 211 0.0 0.0 0.00 0.10 0.10 99 1005.1
20260506113529 50 211 0.0 0.0 0.07 0.10 0.10 99 1005.1
20260506113026 50 211 0.0 0.0 0.07 0.10 0.10 99 1005.1
20260506112522 50 211 0.0 0.0 0.00 0.09 0.09 99 1005.1
20260506112020 50 211 0.0 0.0 0.00 0.09 0.09 99 1004.9
20260506111518 50 211 0.0 0.0 0.05 0.09 0.09 99 1005.1
20260506111015 50 211 0.0 0.0 0.05 0.09 0.09 99 1005.2
20260506110513 50 211 0.0 0.0 0.00 0.08 0.08 99 1005.3
20260506110010 50 211 0.0 0.0 0.07 0.08 0.08 99 1005.4
20260506105505 50 211 0.0 0.0 0.12 0.08 0.08 99 1005.2
20260506105003 50 211 0.0 0.0 0.05 0.07 0.07 99 1005.4
20260506104501 50 211 0.0 0.0 0.07 0.06 0.06 99 1005.3
20260506103959 50 211 0.0 0.0 0.14 0.06 0.06 99 1005.1
20260506103455 50 211 0.0 0.0 0.12 0.05 0.05 99 1005.0
20260506102952 50 211 0.0 0.0 0.05 0.04 0.04 99 1004.9
20260506102450 50 211 0.0 0.0 0.07 0.03 0.03 99 1004.9
20260506101947 50 211 0.0 0.0 0.07 0.03 0.03 99 1004.9